Location: Granada
(37.1830°N, 3.6000°W)
Time: 13:44:07
(UTC+01:00)

Iridium 70 - Visible Passes

Search period start: 02 March 2015 00:00
Search period end: 12 March 2015 00:00
Orbit: 776 x 779 km, 86.4° (Epoch: 01 March)

Date Brightness Start Highest point End Pass type
(mag) Time Alt. Az. Time Alt. Az. Time Alt. Az.
02 Mar 7.7 04:47:02 19° NNE 04:47:02 19° NNE 04:48:26 10° NNE visible
03 Mar 8.3 04:13:50 13° NNE 04:13:50 13° NNE 04:14:26 10° NNE visible
03 Mar 7.6 05:54:19 13° NNW 05:54:19 13° NNW 05:55:04 10° NNW visible
04 Mar 7.6 05:21:06 15° NNW 05:21:06 15° NNW 05:22:03 10° N visible
05 Mar 7.9 04:47:50 15° N 04:47:50 15° N 04:48:39 10° N visible
06 Mar 8.3 04:14:33 12° NNE 04:14:33 12° NNE 04:14:53 10° NNE visible
07 Mar 7.9 05:21:44 11° NNW 05:21:44 11° NNW 05:21:54 10° NNW visible
08 Mar 8.0 04:48:24 12° N 04:48:24 12° N 04:48:43 10° N visible
09 Mar 8.3 04:15:04 11° N 04:15:04 11° N 04:15:11 10° N visible
